Prescott, AZ

12:13 AM MST on November 17, 2019 (GMT -0700)
Love

Weather History for KPRC - May, 2019

Change the Weather History Date:

Monday, May 20, 2019

  Actual Average Record
Temperature  
Mean Temperature 44 °F 63 °F  
Max Temperature 52 °F 78 °F 92 °F (2008)
Min Temperature 37 °F 48 °F 30 °F (1974)
Degree Days  
Heating Degree Days 20    
Month to date heating degree days 159  
Since 1 July heating degree days 4208  
Cooling Degree Days 0    
Month to date cooling degree days 0  
Year to date cooling degree days 1  
Moisture  
Dew Point 33 °F    
Average Humidity 65    
Maximum Humidity 82    
Minimum Humidity 38    
Precipitation  
Precipitation 0.05 in 0.02 in 0.26 in (1979)
Month to date precipitation 0.94 0.30  
Year to date precipitation 6.46 4.38  
Sea Level Pressure  
Sea Level Pressure 29.71 in    
Wind  
Wind Speed 7 mph ()    
Max Wind Speed 25 mph    
Max Gust Speed 32 mph    
Visibility 10.0 miles    
Events Rain    
T = Trace of Precipitation, MM = Missing Value Source: Averaged Metar Reports

Daily Weather History Graph

Daily Weather History Graph

Search for Another Location

Airport or City:

Astronomy

May. 20, 2019 Rise Set
Actual Time 5:23 AM MST 7:29 PM MST
Civil Twilight 4:55 AM MST 7:57 PM MST
Nautical Twilight 4:20 AM MST 8:32 PM MST
Astronomical Twilight 3:43 AM MST 9:09 PM MST
Moon 9:32 PM MST (5/20) 6:55 AM MST (5/20)
Length of Visible Light 15h 02m
Length of Day
14h 05m
Waning Gibbous, 96% of the Moon is Illuminated
May 20
Waning Gibbous
May 26
Last Quarter
Jun 3
New
Jun 9
First Quarter
Jun 17
Full

Hourly Weather History & Observations

Time (MST) Temp. Windchill Dew Point Humidity Pressure Visibility Wind Dir Wind Speed Gust Speed Precip Events Conditions
12:53 AM 46.0 °F 40.6 °F 37.0 °F 71% 29.64 in 10.0 mi SW 11.5 mph - N/A   Clear
1:53 AM 45.0 °F 42.6 °F 37.0 °F 74% 29.62 in 10.0 mi SW 4.6 mph - N/A   Clear
2:53 AM 44.1 °F 41.5 °F 36.0 °F 73% 29.60 in 10.0 mi South 4.6 mph - N/A   Clear
3:53 AM 43.0 °F - 35.1 °F 74% 29.62 in 10.0 mi Calm Calm - N/A   Clear
4:53 AM 43.0 °F - 35.1 °F 74% 29.64 in 10.0 mi Calm Calm - N/A   Scattered Clouds
5:53 AM 42.1 °F 40.2 °F 34.0 °F 73% 29.64 in 10.0 mi South 3.5 mph - N/A   Mostly Cloudy
6:53 AM 43.0 °F 41.3 °F 35.1 °F 74% 29.65 in 10.0 mi SSW 3.5 mph - N/A   Mostly Cloudy
7:53 AM 45.0 °F 39.3 °F 32.0 °F 60% 29.65 in 10.0 mi WSW 11.5 mph - N/A   Mostly Cloudy
8:53 AM 46.0 °F 39.9 °F 30.9 °F 56% 29.67 in 10.0 mi WSW 13.8 mph - N/A   Mostly Cloudy
9:53 AM 48.0 °F - 28.9 °F 48% 29.67 in 10.0 mi WSW 12.7 mph 24.2 mph N/A   Mostly Cloudy
10:53 AM 51.1 °F - 28.9 °F 43% 29.66 in 10.0 mi WSW 16.1 mph 29.9 mph N/A   Mostly Cloudy
11:53 AM 48.9 °F - 30.0 °F 48% 29.69 in 10.0 mi West 16.1 mph 24.2 mph N/A   Mostly Cloudy
12:53 PM 46.0 °F 38.3 °F 30.9 °F 56% 29.71 in 10.0 mi WSW 20.7 mph 29.9 mph 0.02 in   Mostly Cloudy
1:53 PM 48.9 °F - 33.1 °F 54% 29.70 in 10.0 mi SSW 12.7 mph 20.7 mph 0.00 in Rain Light Rain
2:23 PM 51.1 °F - 26.1 °F 38% 29.82 in 10.0 mi West 21.9 mph 28.8 mph 0.00 in   Mostly Cloudy
2:53 PM 48.9 °F - 28.9 °F 46% 29.72 in 10.0 mi WNW 9.2 mph - 0.00 in   Overcast
3:53 PM 45.0 °F 40.1 °F 36.0 °F 71% 29.75 in 10.0 mi NNE 9.2 mph - 0.02 in Rain Light Rain
4:53 PM 44.1 °F 36.2 °F 37.9 °F 79% 29.76 in 10.0 mi NNE 18.4 mph - 0.00 in   Overcast
5:53 PM 45.0 °F - 37.0 °F 74% 29.76 in 10.0 mi Calm Calm - 0.01 in   Scattered Clouds
6:53 PM 46.0 °F - 37.0 °F 71% 29.77 in 10.0 mi Calm Calm - N/A   Scattered Clouds
7:53 PM 44.1 °F - 36.0 °F 73% 29.78 in 10.0 mi Calm Calm - N/A   Clear
8:53 PM 41.0 °F - 36.0 °F 82% 29.81 in 10.0 mi Calm Calm - N/A   Clear
9:53 PM 39.0 °F - 33.1 °F 79% 29.82 in 10.0 mi Calm Calm - N/A   Clear
10:53 PM 39.0 °F 32.8 °F 30.9 °F 73% 29.81 in 10.0 mi South 9.2 mph - N/A   Clear
11:53 PM 42.1 °F - 30.0 °F 62% 29.80 in 10.0 mi Calm Calm - N/A   Clear